Find Starlink 34819

NORAD ID: 65040 Int'l Des: 2025-161 Owner: SPXS Country: US Constellation: starlink operational
LEOCIRCULAR

Live Position

Loading 3D Globe...

About Starlink 34819

Description loading...

Upcoming Passes

Passes for default location (London). Set your location on the main map for personalized predictions.

Altitude History

Loading altitude history...

Two-Line Element Set

1 65040U 25161AB 26106.76097089 .00007880 00000-0 27789-3 0 9990
2 65040 53.1587 117.7183 0001145 79.1099 281.0030 15.30199680 40055
Epoch: Apr 16, 2026 • Age: 18 hours

Current Status

Altitude 478.5 km
Velocity 7.63 km/s
Sub-Earth Point 41.29°N, 132.96°W
Launch Date Jul 30, 2025
Age 0.7 years
Type internet

Technical Details

Classification Payload
Mass 575.00 kg
Dry Mass 530.00 kg
Total Mass 575.00 kg
Length 0.30 m
Diameter 4.10 m
Span 29.00 m
Shape Box + pan
Manufacturer SPXS
Bus Type Starlink V2MO
Phase Status In Orbit
Owner/State SPXS/US

Most Searched